Overview Statistics Trail Chart Weather Telemetry Raw packets
 

This is the latest recevied weather packets stored in our database for station/object HA9OZD-18. If no packets are shown the sender has not sent any weather packets the latest 10 day(s).

<< 5 6 7 8 9 10 11 >>
Time Temp. Humidity Pressure Rain* Wind** Luminosity Snow
1788155091 18.89° C 45% 1017.7 hPa - - - -
1788151499 18.33° C 46% 1017.5 hPa - - - -
1788151491 18.33° C 46% 1017.5 hPa - - - -
1788148153 17.78° C 45% 1017.4 hPa - - - -
1788147934 17.78° C 45% 1017.4 hPa - - - -
1788147890 17.78° C 45% 1017.4 hPa - - - -
1788144290 18.33° C 46% 1017.4 hPa - - - -
1788140690 18.33° C 44% 1017.6 hPa - - - -
1788137134 18.33° C 42% 1017.6 hPa - - - -
1788137089 18.33° C 42% 1017.6 hPa - - - -
1788133563 18.33° C 42% 1017.8 hPa - - - -
1788133489 18.33° C 42% 1017.8 hPa - - - -
1788129899 18.89° C 41% 1018 hPa - - - -
1788129889 18.89° C 41% 1018 hPa - - - -
1788126289 18.89° C 42% 1018 hPa - - - -
1788122688 18.89° C 41% 1017.8 hPa - - - -
1788119087 19.44° C 40% 1017.8 hPa - - - -
1788115510 19.44° C 40% 1017.6 hPa - - - -
1788111910 20° C 38% 1017.3 hPa - - - -
1788108310 21.11° C 34% 1017.1 hPa - - - -
1788104717 22.78° C 32% - - - - -
1788104710 22.78° C 32% 1017.1 hPa - - - -
1788101109 23.89° C 30% 1017.2 hPa - - - -
1788097509 25° C 26% 1017.4 hPa - - - -
1788093909 30.56° C 22% 1017.6 hPa - - - -

* Rain since midnight (hover to see other rain measurements)
** Current wind speed in m/s (hover to see current wind gust speed)